www.pogodaiklimat.ru

Погода и климат >> Архив погоды >> Иран >> Kahnuj


ПОГОДА в Kahnuj

  • Прогноз погоды в Kahnuj
  • Монитор погоды в Kahnuj
  • Климат города

АРХИВ ПОГОДЫ в Kahnuj

Время (UTC), дата Ветер
(напр.,м/с)
 
Видим.   Явления Облачность Т
(С)
Тd
(С)
f
(%)
Тe
(С)
Тes
(С)
Комфортность P
(гПа)
Po
(гПа)
Тmin
(С)
Tmax
(С)
R
(мм)
R24
(мм)
S
(см)
18 12.07 ЮЗ 4 10 км ясно +39.3 +8.7 16 +37 +37 очень
жарко
988.5 939.8
21 12.07 штиль 0 10 км ясно +35.3 +8.5 19 +34 +34 очень
жарко
989.0 940.2
00 13.07 штиль 0 10 км ясно +32.5 +9.9 25 +32 +32 жарко 989.0 940.0
03 13.07 штиль 0 10 км ясно +34.5 +11.2 24 +34 +38 очень
жарко
989.6 940.5 +31.2
06 13.07 ЮВ 2 10 км ясно +42.3 +4.9 10 +39 +56 опасность
солнечного
удара
989.7 940.8
09 13.07 ЮЗ 4 10 км ясно +44.7 +6.3 10 +42 +56 опасность
перегрева
988.7 939.7
12 13.07 Ю 4 10 км ясно +45.6 +5.6 9 +43 +48 опасность
перегрева
986.5 937.6
15 13.07 З 10 8000 м пыльный позёмок ясно +42.6 +11.5 16 +42 +42 опасность
перегрева
986.2 937.2 +45.8
18 13.07 З 5 10 км ясно +39.2 +7.4 15 +37 +37 очень
жарко
988.7 939.9
21 13.07 ЮЗ 4 10 км ясно +36.5 +10.6 21 +36 +36 очень
жарко
989.3 940.5
00 14.07 ЮЗ 3 10 км ясно +31.7 +11.1 28 +32 +32 жарко 989.4 940.3
03 14.07 ЮЗ 3 10 км ясно +33.4 +13.5 30 +34 +37 очень
жарко
990.4 941.2 +29.8
06 14.07 ЮЗ 2 10 км ясно +40.7 +13.4 20 +41 +57 опасность
перегрева
990.1 941.2
09 14.07 Ю 2 10 км ясно +44.8 +8.9 12 +43 +64 опасность
перегрева
988.9 940.1
12 14.07 Ю 3 10 км ясно +46.1 +8.3 11 +44 +51 опасность
перегрева
986.5 937.5
15 14.07 З 7 10 км ясно +41.1 +14.2 21 +42 +42 опасность
перегрева
986.6 937.5 +46.2
18 14.07 З 7 10 км ясно +37.3 +16.8 30 +40 +40 очень
душно
988.4 939.6
21 14.07 З 4 10 км ясно +35.2 +14.2 28 +36 +36 очень
жарко
989.3 940.5
00 15.07 З 2 10 км ясно +33.0 +14.0 32 +34 +34 очень
жарко
989.1 940.2
03 15.07 штиль 0 10 км ясно +32.4 +15.1 35 +34 +38 очень
жарко
990.4 941.1 +30.3
06 15.07 ЮЗ 4 10 км ясно +39.2 +16.1 26 +41 +52 опасность
перегрева
989.9 940.8
09 15.07 З 6 10 км ясно +44.4 +13.0 16 +44 +52 опасность
перегрева
987.9 939.1
12 15.07 З 5 10 км ясно +45.4 +12.7 15 +45 +49 опасность
перегрева
985.4 936.6
15 15.07 ЮЗ 9 10 км ясно +41.1 +15.4 22 +42 +42 опасность
перегрева
986.1 936.9 +45.9
18 15.07 ЮЗ 8 10 км ясно +37.0 +16.1 29 +39 +39 очень
душно
987.2 938.2
21 15.07 ЮЗ 6 10 км ясно +34.9 +15.4 31 +37 +37 очень
душно
987.5 938.7
00 16.07 штиль 0 10 км ясно +33.7 +14.0 31 +35 +35 очень
жарко
987.3 938.5
03 16.07 ЮЗ 3 10 км ясно +31.6 +15.2 37 +34 +36 душно 988.6 939.2 +30.3
06 16.07 ЮЗ 6 10 км 1/0
[Cc]
+39.1 +16.5 27 +41 +48 опасность
перегрева
988.2 939.2
09 16.07 ЮЗ 8 10 км ясно +44.2 +15.1 19 +45 +49 опасность
перегрева
986.5 937.8
12 16.07 ЮЗ 10 10 км ясно +45.9 +13.8 16 +46 +47 опасность
перегрева
984.5 935.8
15 16.07 ЮЗ 11 10 км 4/0
[Ac As]
+40.7 +16.6 25 +43 +43 опасность
перегрева
985.6 936.4 +46.2
18 16.07 ЮЗ 10 10 км ясно +36.9 +16.0 29 +39 +39 очень
душно
986.9 937.9
21 16.07 ЮЗ 5 10 км ясно +34.6 +16.1 33 +37 +37 очень
душно
987.5 938.7
00 17.07 ЮЗ 8 10 км ясно +31.9 +18.1 44 +36 +36 очень
душно
987.6 938.7
03 17.07 ЮЗ 8 10 км ясно +30.5 +22.9 64 +40 +41 очень
душно
989.3 940.0 +30.0
06 17.07 З 7 10 км ясно +35.0 +21.8 46 +43 +48 опасность
перегрева
990.0 940.7
09 17.07 ЮЗ 8 10 км ясно +40.2 +18.9 29 +44 +48 опасность
перегрева
988.5 939.6
12 17.07 З 7 10 км ясно +42.0 +21.1 30 +48 +50 опасность
перегрева
986.0 937.0
15 17.07 З 8 10 км ясно +38.6 +20.3 35 +45 +45 опасность
перегрева
986.9 937.5 +42.1
18 17.07 З 5 10 км ясно +35.1 +18.9 39 +40 +40 очень
душно
989.0 939.5
21 17.07 З 6 10 км ясно +35.0 +12.2 25 +35 +35 очень
жарко
989.5 940.2
00 18.07 З 7 10 км ясно +31.7 +19.6 49 +38 +38 очень
душно
989.2 940.0
03 18.07 З 5 10 км ясно +30.6 +22.4 62 +40 +41 очень
душно
991.2 941.6 +30.1
06 18.07 ЮЗ 9 10 км ясно +35.6 +19.5 39 +41 +43 опасность
перегрева
991.4 941.9
09 18.07 ЮЗ 9 10 км ясно +39.9 +20.9 34 +46 +49 опасность
перегрева
989.7 940.6
12 18.07 ЮЗ 10 10 км ясно +41.4 +21.6 32 +48 +49 опасность
перегрева
988.1 939.0
15 18.07 ЮЗ 12 10 км 5/0
[Cs]
+37.9 +20.1 36 +44 +44 опасность
перегрева
989.4 939.8 +41.7
18 18.07 З 9 10 км ясно +34.3 +19.1 41 +39 +39 очень
душно
991.7 942.1
21 18.07 ЮЗ 7 10 км ясно +33.8 +14.4 31 +35 +35 очень
жарко
992.0 942.5
00 19.07 ЮЗ 6 10 км ясно +31.4 +18.6 47 +36 +36 очень
душно
991.9 942.5
03 19.07 ЮЗ 6 10 км ясно +31.5 +19.4 49 +37 +38 очень
душно
993.0 943.3 +30.8
06 19.07 З 6 10 км ясно +37.2 +14.7 26 +38 +45 душно 992.9 943.2
09 19.07 З 7 10 км ясно +41.1 +16.9 25 +44 +49 опасность
перегрева
990.7 941.4
12 19.07 З 8 10 км ясно +42.1 +20.3 29 +48 +49 опасность
перегрева
988.6 939.4

 

Местоположение метеостанции Kahnuj (Иран): широта 27.97 долгота 57.70 высота над уровнем моря 470 м.

В архиве по умолчанию представлена погода в Kahnuj за последнюю неделю. Архивные данные за месяц целиком и за предыдущие месяцы, начиная с января 2011 года, Вы можете получить, выбрав интересующий диапазон дат из раскрывающегося списка и нажав кнопку "Ввод!".


*Определитесь, кто Вы:
робот инопланетянин человек

Внимание! Время в таблицах - всемирное. Для получения местного времени необходимо прибавить поправку, которая в Kahnuj равна 3.5 ч.

Смотрите также архив погоды в соседних городах и на ближайших метеорологических станциях:

Погода в Bam (Иран) (143 км)
Погода в Bandarabbass (Иран) (155 км)
Погода в Baft (Иран) (178 км)
Погода в Khasab (Оман) (243 км)
Погода в Khasab Airport (Оман) (248 км)
Погода в Sirjan (Иран) (255 км)
Погода в Jask (Иран) (260 км)
Погода в Kerman (Иран) (263 км)
Погода в Diba (Оман) (298 км)
Погода в Iranshahr (Иран) (308 км)

Пояснения к столбцам:

Ветер - указаны скорость ветра в м/с - средняя за 10 мин, порывы в срок и между сроками (в фигурных скобках) и направление, откуда дует ветер: С - северный, СВ - северо-восточный, В - восточный, ЮВ - юго-восточный, Ю - южный, ЮЗ - юго-западный, З - западный, СЗ - северо-западный.
Видимость - горизонтальная дальность видимости в метрах или километрах. При видимости от 1 до 10 км при отсутствии осадков обычно наблюдается дымка, при ухудшении видимости до 1 км и менее - туман. В сухую погоду видимость может ухудшаться дымом, пылью или мглою.
Явления - указаны атмосферные явления, наблюдавшиеся в срок или в последний час перед сроком; фигурными скобками обозначены явления, наблюдавшиеся между сроками (за 1-3 часа до срока); квадратными скобками обозначены град или гололедные отложения с указанием их диаметра в мм.
Облачность - указаны через наклонную черту общая и нижняя облачность в баллах и высота нижней границы облаков в метрах; квадратными скобками обозначены формы облаков: Ci - перистые, Cs - перисто-слоистые, Cc - перисто-кучевые, Ac - высококучевые, As - высокослоистые, Sc - слоисто-кучевые, Ns - слоисто-дождевые, Cu - кучевые, Cb - кучево-дождевые. Подробнее классификацию облаков см. в Атласе облаков (PDF).
T - Температура воздуха - температура, измеренная на высоте 2 м над землей.
Td - Температура точки росы - температура, при понижении до которой содержащийся в воздухе водяной пар достигнет насыщения.
f - Относительная влажность воздуха - влажноcть воздуха, измеренная на высоте 2 м над землей.
Te - Эффективная температура - температура, которую ощущает одетый по сезону человек в тени. Характеристика душности погоды. При расчете учитывается влияние влажности воздуха и скорости ветра на теплоощущения человека.
Tes - Эффективная температура на солнце - температура, которую ощущает человек, с поправкой на солнечный нагрев. Характеристика знойности погоды. Зависит от высоты солнца над горизонтом, облачности и скорости ветра. Ночью, в пасмурную погоду, а также при ветре 12 м/с и более поправка равна нулю.
P - Атмосферное давление - приведенное к уровню моря атмосферное давление.
Po - Атмосферное давление - измеренное на уровне метеостанции атмосферное давление.
Tmin - Минимальная температура - минимум температуры воздуха на высоте 2 м над землей.
Tmax - Максимальная температура - максимум температуры воздуха на высоте 2 м над землей.
R - Количество осадков - Количество выпавших осадков за период времени, мм. При наведении курсора мыши на число - период времени, за который выпало указанное количество осадков.
R24 - Количество осадков - Количество выпавших осадков за 24 часа, мм.
S - Снежный покров - Высота снежного покрова, см. При наведении курсора мыши на число - состояние снежного покрова и степень покрытия местности в баллах.